Weather History for KMSN - May, 2014

Change the Weather History Date:

Wednesday, May 28, 2014

  Actual Average Record
Temperature  
Mean Temperature 64 °F 61 °F  
Max Temperature 74 °F 72 °F 92 °F (1991)
Min Temperature 53 °F 50 °F 34 °F (1965)
Degree Days  
Heating Degree Days 1 5  
Month to date heating degree days 208 251  
Since 1 July heating degree days 8048 7258  
Cooling Degree Days 0 1  
Month to date cooling degree days 41 18  
Year to date cooling degree days 41 22  
Growing Degree Days 15 (Base 50)    
Moisture  
Dew Point 50 °F    
Average Humidity 67    
Maximum Humidity 90    
Minimum Humidity 44    
Precipitation  
Precipitation 0.00 in 0.12 in 1.86 in (1927)
Month to date precipitation 3.47 3.16  
Year to date precipitation 11.75 11.44  
Snow  
Snow 0.00 in 0.00 in T in (1947)
Month to date snowfall 0.0 0.2  
Since 1 July snowfall 59.2 50.9  
Snow Depth 0.00 in    
Sea Level Pressure  
Sea Level Pressure 30.02 in    
Wind  
Wind Speed 8 mph (ENE)    
Max Wind Speed 16 mph    
Max Gust Speed 21 mph    
Visibility 10 miles    
Events      
T = Trace of Precipitation, MM = Missing Value Source: NWS Daily Summary

Daily Weather History Graph

Daily Weather History Graph

Search for Another Location

Airport or City:

Trip Planner

Search our weather history database for the weather conditions in past years. The results will help you decide how hot, cold, wet, or windy it might be!

Date:

Astronomy

May. 28, 2014 Rise Set
Actual Time 5:22 AM CDT 8:27 PM CDT
Civil Twilight 4:48 AM CDT 9:01 PM CDT
Nautical Twilight 4:04 AM CDT 9:45 PM CDT
Astronomical Twilight 3:12 AM CDT 10:37 PM CDT
Moon 5:30 AM CDT (5/28) 8:23 PM CDT (5/28)
Length of Visible Light 16h 12m
Length of Day
15h 04m
Waning Crescent, 0% of the Moon is Illuminated
May 28
Waning Crescent
May 28
New
Jun 5
First Quarter
Jun 12
Full
Jun 19
Last Quarter

Hourly Weather History & Observations

Time (CDT) Temp. Dew Point Humidity Pressure Visibility Wind Dir Wind Speed Gust Speed Precip Events Conditions
12:53 AM 61.0 °F 57.9 °F 90% 29.94 in 10.0 mi ESE 4.6 mph - N/A   Clear
1:53 AM 61.0 °F 57.0 °F 87% 29.94 in 10.0 mi East 3.5 mph - N/A   Mostly Cloudy
2:53 AM 61.0 °F 55.9 °F 83% 29.95 in 10.0 mi ENE 3.5 mph - N/A   Overcast
3:16 AM 61.0 °F 55.0 °F 81% 29.97 in 10.0 mi ENE 3.5 mph - N/A   Overcast
3:53 AM 60.1 °F 53.1 °F 78% 29.96 in 10.0 mi ENE 4.6 mph - N/A   Overcast
4:53 AM 59.0 °F 48.0 °F 67% 29.97 in 10.0 mi NE 5.8 mph - N/A   Overcast
5:53 AM 59.0 °F 48.9 °F 69% 29.99 in 10.0 mi ENE 4.6 mph - N/A   Overcast
6:26 AM 57.9 °F 46.0 °F 65% 30.00 in 10.0 mi NE 8.1 mph - N/A   Overcast
6:53 AM 59.0 °F 46.0 °F 62% 30.01 in 10.0 mi NE 6.9 mph - N/A   Overcast
8:53 AM 60.1 °F 46.0 °F 60% 30.04 in 10.0 mi NE 6.9 mph - N/A   Overcast
9:53 AM 64.0 °F 46.9 °F 54% 30.04 in 10.0 mi ENE 6.9 mph - N/A   Mostly Cloudy
10:53 AM 66.0 °F 50.0 °F 56% 30.04 in 10.0 mi ENE 10.4 mph - N/A   Mostly Cloudy
11:53 AM 69.1 °F 48.9 °F 49% 30.05 in 10.0 mi NNE 10.4 mph - N/A   Mostly Cloudy
1:53 PM 73.0 °F 52.0 °F 48% 30.04 in 10.0 mi ENE 9.2 mph - N/A   Mostly Cloudy
2:53 PM 72.0 °F 48.0 °F 43% 30.04 in 10.0 mi NE 12.7 mph - N/A   Mostly Cloudy
3:53 PM 72.0 °F 51.1 °F 48% 30.04 in 10.0 mi NE 10.4 mph - N/A   Mostly Cloudy
5:53 PM 71.6 °F 51.8 °F 50% 30.05 in 10.0 mi ENE 10.4 mph - N/A   Partly Cloudy
6:53 PM 70.0 °F 50.0 °F 49% 30.05 in 10.0 mi ENE 12.7 mph - N/A   Partly Cloudy
7:53 PM 66.9 °F 48.9 °F 52% 30.06 in 10.0 mi ENE 9.2 mph - N/A   Partly Cloudy
8:53 PM 63.0 °F 48.9 °F 60% 30.08 in 10.0 mi East 5.8 mph - N/A   Partly Cloudy
9:53 PM 60.8 °F 50.0 °F 68% 30.09 in 10.0 mi ENE 4.6 mph - N/A   Partly Cloudy
10:53 PM 57.9 °F 48.9 °F 72% 30.09 in 10.0 mi ENE 4.6 mph - N/A   Clear
11:53 PM 54.0 °F 50.0 °F 86% 30.09 in 10.0 mi Calm Calm - N/A   Clear